Location: St Andrew
(49.4460°N, 2.5750°W)
Time: 01:26:06
(UTC+01:00)

Daily predictions for brighter satellites

Satellite Brightness Start Highest point End
(mag) Time Altitude Azimuth Time Altitude Azimuth Time Altitude Azimuth
H-2A R/B 3.7 00:04:12 23° W 00:04:12 23° W 00:08:04 10° NW
Cosmos 2278 Rocket 2.4 00:00:52 10° NNW 00:05:57 65° NNE 00:05:57 65° NNE
Cosmos 2056 Rocket 4.1 00:12:36 10° NNW 00:16:53 56° N 00:16:53 56° N
Cosmos 2237 4.5 00:18:45 66° N 00:18:45 66° N 00:23:45 10° NNE
Cosmos 2026 Rocket 4.1 00:12:00 10° N 00:17:37 65° NE 00:17:37 65° NE
Cosmos 1818 4.1 00:14:21 10° NW 00:19:02 57° N 00:19:02 57° N
CZ-2C R/B 4.4 00:15:28 10° NE 00:18:30 23° ENE 00:18:30 23° ENE
CZ-4B R/B 4.3 00:22:48 18° N 00:22:48 18° N 00:23:54 10° N
Cosmos 1844 Rocket 3.6 00:18:08 10° NW 00:22:18 41° WNW 00:22:18 41° WNW
Cosmos 1953 4.5 00:26:42 26° N 00:26:42 26° N 00:28:36 10° N
SL-16 R/B 4.4 00:21:38 10° W 00:26:03 23° NW 00:30:29 10° N
ALOS 2 4.2 00:32:20 34° NNW 00:32:20 34° NNW 00:34:51 10° NNW
Cosmos 2360 Rocket 3.5 00:35:05 30° W 00:36:38 36° NW 00:41:51 10° NNE
Lacrosse 4 Rocket 3.3 00:40:25 31° NNW 00:40:25 31° NNW 00:43:31 10° NNE
COSMOS 2455 3.6 00:41:51 43° ENE 00:41:51 43° ENE 00:46:00 10° NE
GEOS 3 Rocket 4.3 00:38:39 10° NE 00:43:25 50° NNW 00:43:25 50° NNW
Cosmos 2369 Rocket 4.4 00:42:23 10° N 00:46:22 19° NE 00:49:26 13° ENE
Cosmos 2219 Rocket 2.7 00:55:59 55° NNE 00:55:59 55° NNE 01:00:24 10° NNE
ATLAS CENTAUR R/B 3.5 00:56:42 10° NNW 01:00:04 27° NNE 01:00:04 27° NNE
Cosmos 1655 Rocket 4.3 00:59:27 10° NNW 01:05:03 59° WNW 01:05:03 59° WNW
SL-16 R/B 3.2 01:18:35 38° ENE 01:18:35 38° ENE 01:22:22 10° NE
Cosmos 1452 Rocket 4.5 01:12:16 10° NNW 01:15:51 44° NNW 01:15:51 44° NNW
ATLAS 3B R/B 2.7 01:17:58 86° SE 01:17:58 86° SE 01:25:21 10° NE
Cosmos 2237 Rocket 2.7 01:19:37 58° NNE 01:19:37 58° NNE 01:24:12 10° NNE
Cosmos 1980 4.2 01:25:16 57° N 01:25:16 57° N 01:29:57 10° NNE
Cosmos 2333 Rocket 2.7 01:27:30 58° NNW 01:27:30 58° NNW 01:32:32 10° NNE
CZ-2C R/B 4.0 01:36:59 41° NNW 01:36:59 41° NNW 01:40:19 10° NNW
Cosmos 2279 Rocket 4.3 01:36:45 56° WNW 01:36:45 56° WNW 01:42:24 10° N
COSMOS 2428 4.4 01:42:41 23° WNW 01:44:11 26° NW 01:48:55 10° NNE
Cosmos 2278 Rocket 4.2 01:45:54 10° NW 01:47:47 17° WNW 01:47:47 17° WNW
Cosmos 2221 4.4 01:53:55 28° NNW 01:53:55 28° NNW 01:56:17 10° N
Cosmos 2266 Rocket 4.2 01:47:15 10° NNW 01:52:59 64° WNW 01:52:59 64° WNW
CZ-4C R/B 2.8 01:57:52 51° ENE 01:57:52 51° ENE 02:02:43 10° NE
Exosat Rocket 4.4 01:52:03 10° NNW 01:55:39 47° NW 01:55:39 47° NW
CZ-2C R/B 3.2 01:55:15 10° N 02:00:01 53° NW 02:00:01 53° NW
Cosmos 1607 4.0 02:04:22 74° NE 02:04:22 74° NE 02:09:58 10° NE
SL-16 R/B 4.3 02:12:47 10° ESE 02:17:47 27° NE 02:22:48 10° N
Lacrosse 4 Rocket 4.5 02:18:12 10° NW 02:19:27 11° NNW 02:20:42 10° N
USA 238 DEB 3.6 02:20:41 75° WSW 02:21:16 82° NW 02:28:22 10° NE
USA 238 3.6 02:20:48 76° WSW 02:21:22 83° NW 02:28:28 10° NE
Cosmos 1151 Rocket 4.3 02:26:31 40° NNE 02:26:31 40° NNE 02:29:26 10° NNE
Cosmos 1943 4.4 02:26:18 32° ESE 02:26:18 32° ESE 02:31:07 10° NE
COSMOS 2455 4.0 02:24:59 31° WNW 02:26:22 35° NW 02:31:52 10° NNE
Cosmos 2369 Rocket 2.2 02:25:44 10° NNW 02:31:10 75° NE 02:31:10 75° NE
Meteor 2-2 Rocket 4.3 02:32:53 84° NE 02:32:53 84° NE 02:38:37 10° NNE
Cosmos 1048 Rocket 4.2 02:33:26 69° NNE 02:33:26 69° NNE 02:38:10 10° NNE
NOSS 3-2 (A) 3.6 02:34:09 63° ESE 02:34:09 63° ESE 02:40:46 10° NE
Meteor 2-3 Rocket 4.3 02:32:00 10° N 02:37:40 54° ENE 02:38:47 47° ESE
Cosmos 2219 Rocket 4.1 02:37:41 17° WNW 02:39:36 20° NW 02:43:44 10° N
Cosmos 1943 Rocket 3.2 02:34:20 10° NNW 02:39:47 44° NE 02:43:37 18° ESE
ATLAS CENTAUR R/B 4.0 02:35:43 10° NW 02:36:20 14° NW 02:36:20 14° NW
CENTAUR R/B 4.3 02:39:10 17° ESE 02:40:36 18° ESE 02:44:55 10° ENE
NOSS 3-3 (A) 4.4 02:36:05 10° NW 02:42:56 58° WSW 02:42:56 58° WSW
NOSS 3-3 (C) 4.4 02:36:11 10° NW 02:43:04 59° WSW 02:43:04 59° WSW
Cosmos 1331 Rocket 4.2 02:40:19 10° NNW 02:44:51 66° NNW 02:44:51 66° NNW
Cosmos 158 Rocket 4.2 02:46:44 64° NE 02:46:44 64° NE 02:51:01 10° NNE
NOSS 3-2 (C) 3.5 02:53:05 66° SSE 02:53:34 68° SE 03:00:18 10° NE
Cosmos 1300 4.1 02:58:08 37° NNE 02:58:08 37° NNE 03:00:36 10° NNE
ARIANE 5 R/B 4.2 02:52:32 10° NE 02:56:54 26° E 02:58:35 22° ESE
SL-16 R/B 3.2 03:00:27 33° WNW 03:01:13 35° NW 03:06:25 10° NNE
Cosmos 2237 Rocket 4.1 03:01:27 17° WNW 03:03:28 21° NW 03:07:40 10° N
Cosmos 839 Rocket 4.4 02:57:50 10° NW 03:06:06 58° WSW 03:06:43 56° SW
Cosmos 1455 4.1 03:09:05 25° E 03:09:19 25° E 03:12:32 10° NE
ATLAS 3B R/B 3.9 03:05:11 21° W 03:09:28 38° NNW 03:16:09 10° NE
ERBS 4.2 03:12:04 30° NNE 03:12:04 30° NNE 03:14:23 10° NE
Cosmos 2333 Rocket 4.3 03:09:29 13° WNW 03:12:16 18° NW 03:16:06 10° N
IRS-1C 4.3 03:07:33 10° NNE 03:12:52 62° ESE 03:13:40 55° SE
PSLV R/B 4.4 03:09:11 10° N 03:13:17 45° NW 03:13:17 45° NW
Cosmos 2263 4.1 03:08:23 10° NNW 03:14:11 74° WSW 03:14:26 73° SW
ATLAS 5 CENTAUR R/B 2.6 03:16:05 41° SE 03:16:15 41° ESE 03:21:12 10° NE
ADEOS 3.9 03:15:59 10° NNE 03:21:10 58° ESE 03:22:14 48° SE
ERS-2 3.5 03:19:53 10° NNE 03:23:12 33° E 03:23:12 33° E
Cosmos 724 4.3 03:25:54 57° S 03:27:01 71° ESE 03:33:05 10° NE
Cosmos 1271 Rocket 3.8 03:30:14 39° NNW 03:30:14 39° NNW 03:33:12 10° N
IRS-P3 4.1 03:24:47 10° N 03:30:04 63° WNW 03:30:37 59° W
CZ-2D R/B 3.1 03:28:08 10° NNE 03:33:06 40° E 03:35:29 26° SSE
CZ-3A R/B 3.2 03:31:23 26° W 03:34:38 56° NNW 03:38:41 10° ENE
S3M 4.3 03:34:00 46° WSW 03:35:05 51° WNW 03:41:17 10° N
Cosmos 1825 4.3 03:32:32 10° NNE 03:35:45 25° ENE 03:38:44 11° SE
SL-24 R/B 4.2 03:35:29 72° SSW 03:35:54 80° WSW 03:41:02 10° NNW
BREEZE-M DEB (TANK) 4.1 03:37:49 38° SSE 03:37:49 38° SSE 03:42:08 10° SE
SL-08 R/B 4.3 03:40:37 32° WNW 03:40:37 32° WNW 03:43:49 10° NNW
UNK 3.8 03:38:24 44° SSE 03:39:47 74° ENE 03:44:24 10° N
CBERS-1 4.0 03:36:25 10° N 03:41:30 65° WNW 03:42:11 58° WSW
Cosmos 389 Rocket 4.0 03:41:41 28° ESE 03:42:13 30° E 03:45:22 10° NNE
Cosmos 2251 Rocket 3.6 03:42:42 54° W 03:43:26 59° WNW 03:48:39 10° NNE
CZ-4C R/B 3.4 03:43:03 26° WNW 03:45:35 38° NNW 03:51:34 10° NE
ERS-1 4.4 03:42:12 10° NNE 03:47:12 81° ESE 03:48:30 51° S
Cosmos 1862 Rocket 4.3 03:46:10 35° SE 03:47:34 50° E 03:51:52 10° NNE
IRAS Rocket 4.2 03:44:36 10° NNE 03:50:16 90° W 03:52:09 44° SSW
Meteor 1-27 4.3 03:50:16 49° WSW 03:51:23 59° WNW 03:56:56 10° N
AQUA 4.0 03:47:42 10° N 03:52:20 51° WNW 03:52:51 49° W
Cosmos 2292 Rocket 4.4 03:50:26 10° NNW 03:51:57 27° NNW 03:51:57 27° NNW
Cosmos 1709 Rocket 4.0 03:47:39 10° NNW 03:53:58 66° W 03:56:30 37° SSW
Cosmos 494 Rocket 4.1 03:52:57 51° WSW 03:54:01 63° WNW 03:59:15 10° NNE
Resurs 1-4 Rocket 2.4 03:49:01 10° NNE 03:54:15 61° ESE 03:56:49 30° S
USA 234 4.1 03:52:56 10° ENE 03:59:00 39° SE 04:02:15 24° S
NPP 4.2 03:55:01 10° N 04:00:06 43° WNW 04:01:18 37° W
Cosmos 2242 Rocket 3.6 04:00:05 56° WSW 04:00:43 64° WNW 04:05:17 10° N
SL-16 R/B 2.4 03:57:23 27° S 04:00:55 70° WSW 04:07:09 10° NNW
Cosmos 1726 3.7 04:01:45 24° NW 04:01:45 24° NW 04:04:09 10° NNW
Iridium 2 4.1 04:00:52 10° NNW 04:04:08 48° WNW 04:04:08 48° WNW
Cosmos 1733 Rocket 3.0 04:01:12 10° NNW 04:05:33 64° W 04:06:17 54° SW
SL-27 R/B 3.2 04:05:06 42° SE 04:05:48 49° ESE 04:09:18 10° NNE
Cosmos 1943 3.6 04:08:08 36° WSW 04:10:01 50° NW 04:15:32 10° NNE
Cosmos 1892 4.0 04:10:03 10° NNW 04:12:24 26° WNW 04:12:24 26° WNW
Cosmos 2369 Rocket 3.8 04:10:50 10° NW 04:12:53 17° WNW 04:12:53 17° WNW
CZ-2D R/B 4.3 04:11:12 10° NNE 04:15:29 49° E 04:18:16 20° SSE
Cosmos 2074 Rocket 4.0 04:11:39 10° N 04:17:55 89° E 04:24:10 10° S
Cosmos 1782 Rocket 4.4 04:13:47 10° N 04:18:02 50° ENE 04:22:14 10° SSE
SeaSat 1 2.8 04:14:25 10° SE 04:19:19 68° ENE 04:24:15 10° NNW
Cosmos 2327 Rocket 4.4 04:13:32 10° N 04:19:41 88° E 04:25:52 10° S
Cosmos 1943 Rocket 2.7 04:18:18 10° NW 04:23:28 37° WSW 04:24:59 31° SW
COSMOS 2406 3.5 04:20:51 23° S 04:24:29 65° ESE 04:30:12 10° NNE
NOSS 3-2 (A) 4.4 04:21:32 21° W 04:25:22 42° NNW 04:31:59 10° NE
Cosmos 2184 Rocket 4.0 04:19:56 10° N 04:26:21 84° W 04:32:42 10° S
UNKNOWN OBJECT B 2.6 04:22:43 10° NNE 04:26:28 82° ESE 04:28:01 34° S
CZ-4B R/B 4.5 04:21:37 10° NNE 04:26:31 37° E 04:31:23 10° SSE
EO 1 Del DPAF 3.3 04:25:28 39° SSW 04:26:39 59° WSW 04:30:32 10° NNW
CENTAUR R/B 2.6 04:26:22 27° SSW 04:30:03 81° SE 04:37:11 10° NE
IRS-1D 3.7 04:29:20 10° N 04:34:27 57° WNW 04:37:12 27° SW
Cosmos 1862 3.2 04:31:33 10° NNW 04:35:31 67° W 04:38:01 21° S
ARIANE 5 R/B 2.8 04:31:14 10° N 04:36:19 52° WNW 04:38:55 27° SW
Cosmos 1184 Rocket 4.4 04:34:22 10° NW 04:36:17 22° WNW 04:36:17 22° WNW
Cosmos 1908 Rocket 3.5 04:33:46 10° NNW 04:38:07 64° W 04:41:27 16° S
Cosmos 1408 2.6 04:35:59 10° NNW 04:39:42 64° W 04:42:00 22° S
Cosmos 1869 3.8 04:41:29 32° WSW 04:42:41 42° WNW 04:46:29 10° N
Cosmos 1455 3.2 04:44:08 27° W 04:44:56 30° WNW 04:48:26 10° N
NOSS 3-2 (C) 4.5 04:40:31 18° W 04:44:58 40° NNW 04:51:34 10° NE
Cosmos 1656 Rocket 3.8 04:41:51 10° NW 04:47:02 47° WSW 04:52:11 10° S
ERBS 4.5 04:45:40 10° NW 04:48:34 23° N 04:51:29 10° NE
ARGOS Delta rocket 3.5 04:45:28 10° N 04:49:53 83° WNW 04:53:32 15° SSW
CZ-2C R/B 3.5 04:46:39 10° S 04:51:05 76° WSW 04:55:33 10° NNW
AVUM R/B 4.4 04:49:44 16° S 04:52:01 39° ESE 04:55:10 10° NE
SL-24 R/B - RUBIN 2 4.5 04:45:37 10° NW 04:52:22 74° SW 04:58:43 10° SSE
Cosmos 2341 Rocket 4.4 04:46:26 10° N 04:52:43 68° ENE 04:59:01 10° SSE
Abrixas rocket 3.3 04:55:13 26° SSW 04:55:13 26° SSW 04:58:01 10° SSE
ERS-2 3.6 04:53:58 10° N 04:56:56 23° WNW 04:58:02 20° W
Okean O Rocket 1.7 04:52:47 10° NNE 04:57:17 82° ESE 05:01:45 10° SSW
Cosmos 1174 4.1 04:57:04 21° SW 05:00:24 75° NW 05:04:27 10° NE
Cosmos 1703 Rocket 3.5 04:56:41 13° SSW 05:00:38 75° W 05:05:09 10° N
Cosmos 2285 Rocket 4.4 04:54:55 10° NW 05:00:52 41° WSW 05:06:44 10° S
ATLAS 5 CENTAUR R/B 2.6 04:57:38 19° W 05:00:57 44° NW 05:06:12 10° NE
BREEZE-M DEB (TANK) 2.8 04:58:04 14° W 05:02:55 59° NNW 05:05:40 10° ENE
Cosmos 2221 Rocket 3.5 04:59:21 11° SSW 05:03:32 77° W 05:07:58 10° N
Cosmos 1933 3.6 05:02:34 18° SSW 05:05:21 50° WNW 05:09:22 10° N
Cosmos 1190 Rocket 4.0 05:03:41 11° SSW 05:08:43 88° ESE 05:13:57 10° NNE
Okean-O 4.1 05:05:14 10° NNE 05:09:25 38° E 05:13:34 10° SSE
Cosmos 1825 3.1 05:08:05 10° NNW 05:11:21 28° W 05:13:35 16° SW
CZ-2D R/B 2.9 05:08:24 10° N 05:13:06 34° WNW 05:16:48 15° WSW
PAYLOAD B 4.2 05:10:33 10° NNE 05:16:07 87° WNW 05:21:39 10° SSW
Cosmos 389 Rocket 4.0 05:15:47 17° W 05:17:13 21° WNW 05:20:00 10° NNW
CZ-4B R/B 2.6 05:14:01 10° NNE 05:17:43 87° W 05:21:33 10° SSW
Cosmos 2151 Rocket 3.7 05:16:46 10° N 05:21:12 82° E 05:25:35 10° SSE
Okean 1-7 3.0 05:19:02 10° SSW 05:23:20 67° WNW 05:27:43 10° N
PSLV R/B 4.1 05:21:16 10° N 05:24:54 47° WNW 05:28:36 10° SW
Cosmos 1954 Rocket 4.5 05:21:08 10° S 05:26:14 62° ESE 05:31:25 10° NNE
Thor Agena Rocket 3.6 05:23:10 10° S 05:28:15 58° WSW 05:33:27 10° NNW
Meteor 1-25 Rocket 4.2 05:24:01 10° NNW 05:29:36 86° W 05:35:11 10° S
Meteor 1-20 Rocket 4.4 05:26:20 10° NNW 05:32:04 86° ENE 05:37:52 10° SSE
Cosmos 1697 Rocket 3.7 05:27:21 10° NNW 05:32:52 52° NE 05:38:20 10° SE
Resurs 1-4 Rocket 3.4 05:29:34 10° N 05:33:43 24° WNW 05:37:53 10° WSW
USA 32 4.4 05:30:12 10° SSW 05:35:10 43° WNW 05:40:11 10° N
CZ-4C R/B 4.4 05:31:04 10° NW 05:35:57 24° N 05:41:21 10° NE
COSMOS 2487 2.7 05:33:19 10° SW 05:36:52 55° WNW 05:40:26 10° NNE
Nadezhda 1 Rocket 4.4 05:34:10 10° SW 05:40:10 45° WNW 05:46:17 10° N
Meteor 1-31 Rocket 4.3 05:37:00 10° NNE 05:40:36 39° E 05:44:12 10° SSE
Lacrosse 4 Rocket 4.5 05:39:11 10° N 05:41:21 13° NNE 05:43:32 10° ENE
SL-27 R/B 4.4 05:38:57 10° W 05:41:22 17° NW 05:43:46 10° NNW
ADEOS II 2.4 05:36:18 10° NNE 05:41:35 74° ESE 05:46:50 10° S
USA 234 3.3 05:35:50 10° ENE 05:42:25 82° NNW 05:48:58 10° WSW
Okean 1 Rocket 4.0 05:39:45 10° N 05:44:03 54° ENE 05:48:20 10° SSE
Okean 2 Rocket 4.0 05:40:48 10° NNW 05:44:42 29° W 05:48:35 10° SSW
SL-16 R/B 4.2 05:43:06 10° WSW 05:45:42 13° W 05:48:19 10° WNW
Cosmos 676 Rocket 4.0 05:42:05 10° SSW 05:47:16 74° WNW 05:52:31 10° NNE
Cosmos 2278 3.8 05:42:59 10° NW 05:48:35 56° WSW 05:54:08 10° S
Cosmos 2366 rocket 4.3 05:42:34 10° N 05:48:50 78° E 05:55:00 10° SSE
Aureole 3 Rocket 4.0 05:43:42 10° SW 05:49:02 37° WNW 05:53:02 10° N
Meteor 2-10 Rocket 3.8 05:43:26 10° SSW 05:49:13 84° WNW 05:54:52 10° N
Cosmos 1356 3.4 05:46:39 10° NNW 05:50:11 66° W 05:53:42 10° S
MOS 1 Rocket 4.3 05:47:28 10° NNE 05:51:36 46° E 05:55:45 10° S
Cosmos 1980 Rocket 3.3 05:51:51 10° NNW 05:57:27 51° NE 06:02:59 10° SE
ADEOS Rocket 3.7 05:50:31 10° NNE 05:58:17 79° WNW 06:06:00 10° SSW
